Time,TemperatureF,DewpointF,PressureIn,WindDirection,WindDirectionDegrees,WindSpeedMPH,WindSpeedGustMPH,Humidity,HourlyPrecipIn,Conditions,Clouds,dailyrainin,SoftwareType,DateUTC
2013-01-08 00:03:00,22.1,4.9,28.32,WSW,257,3.6,4.9,47,0.00,CLR,OVC,0.00,WeatherDisplay:10.37,2013-01-08 05:03:00,
2013-01-08 00:04:00,22.1,4.9,28.32,West,263,2.7,3.5,47,0.00,CLR,OVC,0.00,WeatherDisplay:10.37,2013-01-08 05:04:00,
2013-01-08 00:09:00,21.4,5.2,28.32,WSW,248,0.0,2.3,49,0.00,CLR,OVC,0.00,WeatherDisplay:10.37,2013-01-08 05:09:00,
2013-01-08 00:14:00,21.4,5.2,28.32,SW,221,2.7,5.8,49,0.00,CLR,OVC,0.00,WeatherDisplay:10.37,2013-01-08 05:14:00,
2013-01-08 00:19:00,21.0,5.3,28.32,WSW,254,0.0,2.3,50,0.00,CLR,OVC,0.00,WeatherDisplay:10.37,2013-01-08 05:19:00,
2013-01-08 00:24:00,21.0,5.7,28.32,WSW,242,2.2,5.8,51,0.00,CLR,OVC,0.00,WeatherDisplay:10.37,2013-01-08 05:24:00,
2013-01-08 00:29:00,21.0,6.1,28.32,WSW,244,0.0,3.5,52,0.00,CLR,OVC,0.00,WeatherDisplay:10.37,2013-01-08 05:29:00,
2013-01-08 00:34:00,20.7,5.4,28.32,WSW,240,0.0,3.1,51,0.00,CLR,OVC,0.00,WeatherDisplay:10.37,2013-01-08 05:34:00,
2013-01-08 00:39:00,20.1,4.4,28.32,WSW,258,0.0,0.0,50,0.00,CLR,OVC,0.00,WeatherDisplay:10.37,2013-01-08 05:39:00,
2013-01-08 00:44:00,19.6,3.5,28.32,WSW,254,0.0,3.5,49,0.00,CLR,OVC,0.00,WeatherDisplay:10.37,2013-01-08 05:44:00,
2013-01-08 00:49:00,19.2,3.2,28.32,WSW,255,0.0,0.0,49,0.00,CLR,OVC,0.00,WeatherDisplay:10.37,2013-01-08 05:49:00,
2013-01-08 00:54:00,18.7,2.7,28.32,WSW,255,0.0,0.0,49,0.00,CLR,OVC,0.00,WeatherDisplay:10.37,2013-01-08 05:54:00,
2013-01-08 00:59:00,18.1,2.2,28.32,West,264,0.0,0.0,49,0.00,CLR,OVC,0.00,WeatherDisplay:10.37,2013-01-08 05:59:00,
2013-01-08 01:04:00,17.6,1.7,28.32,West,260,0.0,2.3,49,0.00,CLR,OVC,0.00,WeatherDisplay:10.37,2013-01-08 06:04:00,
2013-01-08 01:09:00,17.1,1.2,28.32,West,260,0.0,0.0,49,0.00,CLR,OVC,0.00,WeatherDisplay:10.37,2013-01-08 06:09:00,
2013-01-08 01:14:00,17.1,1.2,28.32,West,260,0.0,2.3,49,0.00,CLR,OVC,0.00,WeatherDisplay:10.37,2013-01-08 06:14:00,
2013-01-08 01:19:00,16.7,0.8,28.32,West,261,0.0,3.5,49,0.00,CLR,OVC,0.00,WeatherDisplay:10.37,2013-01-08 06:19:00,
2013-01-08 01:24:00,16.5,0.7,28.32,WSW,253,2.2,3.5,49,0.00,CLR,OVC,0.00,WeatherDisplay:10.37,2013-01-08 06:24:00,
2013-01-08 01:29:00,16.3,0.9,28.32,WSW,248,0.0,2.3,50,0.00,CLR,OVC,0.00,WeatherDisplay:10.37,2013-01-08 06:29:00,
2013-01-08 01:34:00,16.5,1.5,28.32,WSW,239,0.0,2.3,51,0.00,CLR,OVC,0.00,WeatherDisplay:10.37,2013-01-08 06:34:00,
2013-01-08 01:39:00,16.9,2.3,28.32,WSW,250,0.0,3.5,52,0.00,CLR,OVC,0.00,WeatherDisplay:10.37,2013-01-08 06:39:00,
2013-01-08 01:44:00,16.9,2.3,28.32,WSW,250,0.0,2.3,52,0.00,CLR,OVC,0.00,WeatherDisplay:10.37,2013-01-08 06:44:00,
2013-01-08 01:49:00,16.9,2.3,28.32,WSW,251,0.0,3.5,52,0.00,CLR,OVC,0.00,WeatherDisplay:10.37,2013-01-08 06:49:00,
2013-01-08 01:54:00,16.9,2.3,28.32,WSW,250,0.0,3.5,52,0.00,CLR,OVC,0.00,WeatherDisplay:10.37,2013-01-08 06:54:00,
2013-01-08 01:59:00,16.9,2.3,28.35,West,267,0.0,3.5,52,0.00,CLR,OVC,0.00,WeatherDisplay:10.37,2013-01-08 06:59:00,
2013-01-08 02:04:00,16.9,2.3,28.35,WSW,254,2.2,3.5,52,0.00,CLR,OVC,0.00,WeatherDisplay:10.37,2013-01-08 07:04:00,
2013-01-08 02:09:00,16.9,2.7,28.35,WSW,256,2.2,3.5,53,0.00,CLR,OVC,0.00,WeatherDisplay:10.37,2013-01-08 07:09:00,
2013-01-08 02:14:00,16.9,2.7,28.35,WSW,253,0.0,3.5,53,0.00,CLR,OVC,0.00,WeatherDisplay:10.37,2013-01-08 07:14:00,
2013-01-08 02:19:00,16.9,2.7,28.35,West,268,2.2,3.5,53,0.00,CLR,OVC,0.00,WeatherDisplay:10.37,2013-01-08 07:19:00,
2013-01-08 02:24:00,16.9,2.7,28.35,WSW,252,0.0,3.5,53,0.00,CLR,OVC,0.00,WeatherDisplay:10.37,2013-01-08 07:24:00,
2013-01-08 02:29:00,16.9,2.7,28.35,WSW,254,2.2,3.5,53,0.00,CLR,OVC,0.00,WeatherDisplay:10.37,2013-01-08 07:29:00,
2013-01-08 02:34:00,15.6,1.5,28.35,WSW,254,0.0,0.0,53,0.00,CLR,OVC,0.00,WeatherDisplay:10.37,2013-01-08 07:34:00,
2013-01-08 02:39:00,14.7,0.3,28.35,WSW,242,0.0,0.0,52,0.00,CLR,OVC,0.00,WeatherDisplay:10.37,2013-01-08 07:39:00,
2013-01-08 02:44:00,14.5,0.1,28.35,SSW,210,0.0,0.0,52,0.00,CLR,OVC,0.00,WeatherDisplay:10.37,2013-01-08 07:44:00,
2013-01-08 02:49:00,14.5,0.1,28.35,SW,228,0.0,0.0,52,0.00,CLR,OVC,0.00,WeatherDisplay:10.37,2013-01-08 07:49:00,
2013-01-08 02:54:00,14.5,0.1,28.35,WSW,237,0.0,0.0,52,0.00,CLR,OVC,0.00,WeatherDisplay:10.37,2013-01-08 07:54:00,
2013-01-08 02:59:00,14.4,0.3,28.35,West,266,0.0,0.0,53,0.00,CLR,OVC,0.00,WeatherDisplay:10.37,2013-01-08 07:59:00,
2013-01-08 03:04:00,15.6,1.9,28.35,WSW,253,2.7,3.5,54,0.00,CLR,OVC,0.00,WeatherDisplay:10.37,2013-01-08 08:04:00,
2013-01-08 03:09:00,16.2,3.2,28.35,West,269,2.2,3.5,56,0.00,CLR,OVC,0.00,WeatherDisplay:10.37,2013-01-08 08:09:00,
2013-01-08 03:14:00,16.9,4.3,28.35,WSW,244,0.0,2.3,57,0.00,CLR,OVC,0.00,WeatherDisplay:10.37,2013-01-08 08:14:00,
2013-01-08 03:19:00,17.4,4.8,28.35,WSW,251,2.7,6.9,57,0.00,CLR,OVC,0.00,WeatherDisplay:10.37,2013-01-08 08:19:00,
2013-01-08 03:24:00,17.8,5.1,28.35,WSW,251,0.0,3.5,57,0.00,CLR,OVC,0.00,WeatherDisplay:10.37,2013-01-08 08:24:00,
2013-01-08 03:29:00,18.3,6.0,28.38,WSW,251,2.2,3.5,58,0.00,CLR,OVC,0.00,WeatherDisplay:10.37,2013-01-08 08:29:00,
2013-01-08 03:34:00,18.7,6.3,28.38,West,259,2.7,5.8,58,0.00,CLR,OVC,0.00,WeatherDisplay:10.37,2013-01-08 08:34:00,
2013-01-08 03:39:00,18.9,6.5,28.38,SW,222,2.2,3.5,58,0.00,CLR,OVC,0.00,WeatherDisplay:10.37,2013-01-08 08:39:00,
2013-01-08 03:44:00,19.0,7.0,28.38,WSW,243,0.0,3.5,59,0.00,CLR,OVC,0.00,WeatherDisplay:10.37,2013-01-08 08:44:00,
2013-01-08 03:49:00,19.0,7.0,28.38,West,263,3.6,6.9,59,0.00,CLR,OVC,0.00,WeatherDisplay:10.37,2013-01-08 08:49:00,
2013-01-08 03:54:00,19.2,7.6,28.38,West,270,2.7,3.5,60,0.00,CLR,OVC,0.00,WeatherDisplay:10.37,2013-01-08 08:54:00,
2013-01-08 03:59:00,19.2,7.6,28.38,WSW,252,2.2,3.5,60,0.00,CLR,OVC,0.00,WeatherDisplay:10.37,2013-01-08 08:59:00,
2013-01-08 04:04:00,19.2,7.6,28.38,WSW,246,2.7,5.4,60,0.00,CLR,OVC,0.00,WeatherDisplay:10.37,2013-01-08 09:04:00,
2013-01-08 04:09:00,19.0,7.4,28.38,WSW,238,2.7,3.5,60,0.00,CLR,OVC,0.00,WeatherDisplay:10.37,2013-01-08 09:09:00,
2013-01-08 04:14:00,18.9,7.3,28.38,WSW,245,4.5,5.8,60,0.00,CLR,OVC,0.00,WeatherDisplay:10.37,2013-01-08 09:14:00,
2013-01-08 04:19:00,18.9,7.6,28.38,WSW,254,0.0,3.5,61,0.00,CLR,OVC,0.00,WeatherDisplay:10.37,2013-01-08 09:19:00,
2013-01-08 04:24:00,19.0,8.1,28.38,WSW,252,3.1,3.6,62,0.00,CLR,OVC,0.00,WeatherDisplay:10.37,2013-01-08 09:24:00,
2013-01-08 04:29:00,18.9,8.0,28.38,West,259,0.0,3.5,62,0.00,CLR,OVC,0.00,WeatherDisplay:10.37,2013-01-08 09:29:00,
2013-01-08 04:34:00,18.5,7.3,28.38,WSW,242,2.7,3.5,61,0.00,CLR,OVC,0.00,WeatherDisplay:10.37,2013-01-08 09:34:00,
2013-01-08 04:39:00,17.8,6.2,28.38,WSW,254,3.1,4.6,60,0.00,CLR,OVC,0.00,WeatherDisplay:10.37,2013-01-08 09:39:00,
2013-01-08 04:44:00,17.6,6.1,28.38,WSW,255,0.0,2.3,60,0.00,CLR,OVC,0.00,WeatherDisplay:10.37,2013-01-08 09:44:00,
2013-01-08 04:49:00,17.2,5.3,28.38,WSW,255,0.0,2.3,59,0.00,CLR,OVC,0.00,WeatherDisplay:10.37,2013-01-08 09:49:00,
2013-01-08 04:54:00,16.7,4.8,28.38,WSW,246,2.2,3.5,59,0.00,CLR,OVC,0.00,WeatherDisplay:10.37,2013-01-08 09:54:00,
2013-01-08 04:59:00,16.3,4.5,28.38,WSW,255,2.2,3.5,59,0.00,CLR,OVC,0.00,WeatherDisplay:10.37,2013-01-08 09:59:00,
2013-01-08 05:04:00,16.0,4.2,28.38,WSW,250,0.0,3.5,59,0.00,CLR,OVC,0.00,WeatherDisplay:10.37,2013-01-08 10:04:00,
2013-01-08 05:09:00,15.6,3.4,28.38,WSW,258,2.2,3.5,58,0.00,CLR,OVC,0.00,WeatherDisplay:10.37,2013-01-08 10:09:00,
2013-01-08 05:14:00,15.3,3.1,28.38,WNW,295,2.2,4.6,58,0.00,CLR,OVC,0.00,WeatherDisplay:10.37,2013-01-08 10:14:00,
2013-01-08 05:19:00,15.8,4.0,28.38,West,274,0.0,2.3,59,0.00,CLR,OVC,0.00,WeatherDisplay:10.37,2013-01-08 10:19:00,
2013-01-08 05:24:00,15.8,4.0,28.38,West,267,2.2,2.3,59,0.00,CLR,OVC,0.00,WeatherDisplay:10.37,2013-01-08 10:24:00,
2013-01-08 05:29:00,15.8,3.6,28.38,West,260,2.2,4.0,58,0.00,CLR,OVC,0.00,WeatherDisplay:10.37,2013-01-08 10:29:00,
2013-01-08 05:34:00,15.8,3.6,28.38,West,273,0.0,3.5,58,0.00,CLR,OVC,0.00,WeatherDisplay:10.37,2013-01-08 10:34:00,
2013-01-08 05:39:00,16.3,4.5,28.38,West,262,2.2,3.5,59,0.00,CLR,OVC,0.00,WeatherDisplay:10.37,2013-01-08 10:39:00,
2013-01-08 05:44:00,16.2,4.3,28.38,West,266,0.0,3.5,59,0.00,CLR,OVC,0.00,WeatherDisplay:10.37,2013-01-08 10:44:00,
2013-01-08 05:49:00,16.0,3.8,28.38,West,267,2.7,4.0,58,0.00,CLR,OVC,0.00,WeatherDisplay:10.37,2013-01-08 10:49:00,
2013-01-08 05:54:00,16.2,4.3,28.38,West,267,0.0,2.3,59,0.00,CLR,OVC,0.00,WeatherDisplay:10.37,2013-01-08 10:54:00,
2013-01-08 05:59:00,16.2,4.3,28.41,West,268,0.0,0.0,59,0.00,CLR,OVC,0.00,WeatherDisplay:10.37,2013-01-08 10:59:00,
2013-01-08 06:04:00,15.3,3.1,28.41,West,268,0.0,0.0,58,0.00,CLR,OVC,0.00,WeatherDisplay:10.37,2013-01-08 11:04:00,
2013-01-08 06:09:00,14.4,2.3,28.41,WSW,257,0.0,0.0,58,0.00,CLR,OVC,0.00,WeatherDisplay:10.37,2013-01-08 11:09:00,
2013-01-08 06:14:00,13.8,1.4,28.41,WSW,257,0.0,0.0,57,0.00,CLR,OVC,0.00,WeatherDisplay:10.37,2013-01-08 11:14:00,
2013-01-08 06:19:00,13.3,0.9,28.41,WSW,257,0.0,0.0,57,0.00,CLR,OVC,0.00,WeatherDisplay:10.37,2013-01-08 11:19:00,
2013-01-08 06:24:00,12.6,0.2,28.41,WSW,258,0.0,3.5,57,0.00,CLR,OVC,0.00,WeatherDisplay:10.37,2013-01-08 11:24:00,
2013-01-08 06:29:00,12.0,-0.3,28.41,WSW,257,0.0,0.0,57,0.00,CLR,OVC,0.00,WeatherDisplay:10.37,2013-01-08 11:29:00,
2013-01-08 06:34:00,11.7,-0.7,28.41,WSW,257,0.0,0.0,57,0.00,CLR,OVC,0.00,WeatherDisplay:10.37,2013-01-08 11:34:00,
2013-01-08 06:39:00,11.3,-1.0,28.41,WSW,257,0.0,0.0,57,0.00,CLR,OVC,0.00,WeatherDisplay:10.37,2013-01-08 11:39:00,
2013-01-08 06:44:00,10.9,-1.3,28.41,WSW,257,0.0,0.0,57,0.00,CLR,OVC,0.00,WeatherDisplay:10.37,2013-01-08 11:44:00,
2013-01-08 06:49:00,10.8,-1.5,28.41,WSW,257,0.0,0.0,57,0.00,CLR,OVC,0.00,WeatherDisplay:10.37,2013-01-08 11:49:00,
2013-01-08 06:54:00,10.0,-2.2,28.41,WSW,257,0.0,0.0,57,0.00,CLR,OVC,0.00,WeatherDisplay:10.37,2013-01-08 11:54:00,
2013-01-08 06:59:00,9.5,-2.7,28.41,WSW,257,0.0,0.0,57,0.00,CLR,OVC,0.00,WeatherDisplay:10.37,2013-01-08 11:59:00,
2013-01-08 07:04:00,9.3,-2.9,28.41,WSW,257,0.0,0.0,57,0.00,CLR,OVC,0.00,WeatherDisplay:10.37,2013-01-08 12:04:00,
2013-01-08 07:09:00,9.3,-2.9,28.41,West,277,0.0,0.0,57,0.00,CLR,OVC,0.00,WeatherDisplay:10.37,2013-01-08 12:09:00,
2013-01-08 07:14:00,9.1,-3.0,28.41,West,271,0.0,0.0,57,0.00,CLR,OVC,0.00,WeatherDisplay:10.37,2013-01-08 12:14:00,
2013-01-08 07:19:00,8.6,-3.5,28.41,West,271,0.0,0.0,57,0.00,CLR,OVC,0.00,WeatherDisplay:10.37,2013-01-08 12:19:00,
2013-01-08 07:24:00,8.4,-3.7,28.41,West,264,0.0,0.0,57,0.00,CLR,OVC,0.00,WeatherDisplay:10.37,2013-01-08 12:24:00,
2013-01-08 07:29:00,8.4,-3.7,28.44,West,264,0.0,0.0,57,0.00,CLR,OVC,0.00,WeatherDisplay:10.37,2013-01-08 12:29:00,
2013-01-08 07:34:00,8.6,-3.5,28.44,West,264,0.0,0.0,57,0.00,CLR,OVC,0.00,WeatherDisplay:10.37,2013-01-08 12:34:00,
2013-01-08 07:39:00,8.4,-3.7,28.44,West,264,0.0,0.0,57,0.00,CLR,OVC,0.00,WeatherDisplay:10.37,2013-01-08 12:39:00,
2013-01-08 07:44:00,7.9,-4.2,28.44,West,264,0.0,0.0,57,0.00,CLR,OVC,0.00,WeatherDisplay:10.37,2013-01-08 12:44:00,
2013-01-08 07:49:00,7.5,-4.6,28.44,West,264,0.0,0.0,57,0.00,CLR,OVC,0.00,WeatherDisplay:10.37,2013-01-08 12:49:00,
2013-01-08 07:54:00,7.2,-4.9,28.44,West,264,0.0,0.0,57,0.00,CLR,OVC,0.00,WeatherDisplay:10.37,2013-01-08 12:54:00,
2013-01-08 07:59:00,7.0,-5.1,28.44,West,264,0.0,0.0,57,0.00,CLR,OVC,0.00,WeatherDisplay:10.37,2013-01-08 12:59:00,
2013-01-08 08:04:00,6.6,-5.4,28.44,West,264,0.0,0.0,57,0.00,CLR,OVC,0.00,WeatherDisplay:10.37,2013-01-08 13:04:00,
2013-01-08 08:09:00,6.6,-5.4,28.44,West,264,0.0,0.0,57,0.00,CLR,OVC,0.00,WeatherDisplay:10.37,2013-01-08 13:09:00,
2013-01-08 08:14:00,6.6,-5.4,28.44,West,264,0.0,0.0,57,0.00,CLR,OVC,0.00,WeatherDisplay:10.37,2013-01-08 13:14:00,
2013-01-08 08:19:00,6.6,-5.4,28.44,West,264,0.0,0.0,57,0.00,CLR,OVC,0.00,WeatherDisplay:10.37,2013-01-08 13:19:00,
2013-01-08 08:24:00,6.3,-5.7,28.44,West,264,0.0,0.0,57,0.00,CLR,OVC,0.00,WeatherDisplay:10.37,2013-01-08 13:24:00,
2013-01-08 08:29:00,6.1,-5.9,28.44,West,264,0.0,0.0,57,0.00,CLR,OVC,0.00,WeatherDisplay:10.37,2013-01-08 13:29:00,
2013-01-08 08:34:00,5.5,-6.4,28.44,West,264,0.0,0.0,57,0.00,CLR,OVC,0.00,WeatherDisplay:10.37,2013-01-08 13:34:00,
2013-01-08 08:39:00,5.5,-6.4,28.44,West,264,0.0,0.0,57,0.00,CLR,OVC,0.00,WeatherDisplay:10.37,2013-01-08 13:39:00,
2013-01-08 08:44:00,5.2,-6.8,28.44,West,264,0.0,0.0,57,0.00,CLR,OVC,0.00,WeatherDisplay:10.37,2013-01-08 13:44:00,
2013-01-08 08:49:00,5.2,-6.8,28.44,West,264,0.0,0.0,57,0.00,CLR,OVC,0.00,WeatherDisplay:10.37,2013-01-08 13:49:00,
2013-01-08 08:54:00,5.2,-6.8,28.44,West,264,0.0,0.0,57,0.00,CLR,OVC,0.00,WeatherDisplay:10.37,2013-01-08 13:54:00,
2013-01-08 08:59:00,5.2,-6.8,28.44,West,264,0.0,0.0,57,0.00,CLR,OVC,0.00,WeatherDisplay:10.37,2013-01-08 13:59:00,
2013-01-08 09:04:00,5.2,-6.8,28.44,West,264,0.0,0.0,57,0.00,CLR,OVC,0.00,WeatherDisplay:10.37,2013-01-08 14:04:00,
2013-01-08 09:09:00,5.2,-6.8,28.44,West,264,0.0,0.0,57,0.00,CLR,OVC,0.00,WeatherDisplay:10.37,2013-01-08 14:09:00,
2013-01-08 09:14:00,5.7,-6.3,28.47,West,264,0.0,0.0,57,0.00,CLR,OVC,0.00,WeatherDisplay:10.37,2013-01-08 14:14:00,
2013-01-08 09:19:00,6.6,-5.4,28.47,West,264,0.0,0.0,57,0.00,CLR,OVC,0.00,WeatherDisplay:10.37,2013-01-08 14:19:00,
2013-01-08 09:24:00,7.5,-4.6,28.47,West,264,0.0,0.0,57,0.00,CLR,OVC,0.00,WeatherDisplay:10.37,2013-01-08 14:24:00,
2013-01-08 09:29:00,9.0,-3.2,28.47,West,264,0.0,0.0,57,0.00,CLR,OVC,0.00,WeatherDisplay:10.37,2013-01-08 14:29:00,
2013-01-08 09:34:00,10.9,-1.3,28.47,West,264,0.0,0.0,57,0.00,CLR,OVC,0.00,WeatherDisplay:10.37,2013-01-08 14:34:00,
2013-01-08 09:39:00,11.3,-1.0,28.47,West,264,0.0,0.0,57,0.00,CLR,OVC,0.00,WeatherDisplay:10.37,2013-01-08 14:39:00,
2013-01-08 09:44:00,11.1,-1.2,28.47,West,264,0.0,0.0,57,0.00,CLR,OVC,0.00,WeatherDisplay:10.37,2013-01-08 14:44:00,
2013-01-08 09:49:00,11.8,-0.5,28.47,West,264,0.0,0.0,57,0.00,CLR,OVC,0.00,WeatherDisplay:10.37,2013-01-08 14:49:00,
2013-01-08 09:54:00,13.8,1.0,28.47,West,264,0.0,0.0,56,0.00,CLR,OVC,0.00,WeatherDisplay:10.37,2013-01-08 14:54:00,
2013-01-08 09:59:00,15.8,2.9,28.47,West,264,0.0,0.0,56,0.00,CLR,OVC,0.00,WeatherDisplay:10.37,2013-01-08 14:59:00,
2013-01-08 10:04:00,17.4,4.4,28.47,West,264,0.0,0.0,56,0.00,CLR,OVC,0.00,WeatherDisplay:10.37,2013-01-08 15:04:00,
2013-01-08 10:09:00,18.7,5.2,28.47,West,264,0.0,0.0,55,0.00,CLR,OVC,0.00,WeatherDisplay:10.37,2013-01-08 15:09:00,
2013-01-08 10:14:00,19.6,6.4,28.47,West,264,0.0,0.0,56,0.00,CLR,OVC,0.00,WeatherDisplay:10.37,2013-01-08 15:14:00,
2013-01-08 10:19:00,20.7,7.4,28.47,WNW,289,0.0,0.0,56,0.00,CLR,OVC,0.00,WeatherDisplay:10.37,2013-01-08 15:19:00,
2013-01-08 10:24:00,21.4,7.7,28.47,WNW,289,0.0,0.0,55,0.00,CLR,OVC,0.00,WeatherDisplay:10.37,2013-01-08 15:24:00,
2013-01-08 10:29:00,22.5,9.1,28.47,WSW,256,0.0,0.0,56,0.00,CLR,OVC,0.00,WeatherDisplay:10.37,2013-01-08 15:29:00,
2013-01-08 10:34:00,23.5,10.1,28.47,WSW,256,0.0,0.0,56,0.00,CLR,OVC,0.00,WeatherDisplay:10.37,2013-01-08 15:34:00,
2013-01-08 10:39:00,25.2,11.6,28.47,WSW,256,0.0,0.0,56,0.00,CLR,OVC,0.00,WeatherDisplay:10.37,2013-01-08 15:39:00,
2013-01-08 10:44:00,26.6,13.0,28.47,WSW,256,0.0,0.0,56,0.00,CLR,OVC,0.00,WeatherDisplay:10.37,2013-01-08 15:44:00,
2013-01-08 10:49:00,27.7,13.6,28.47,WSW,256,0.0,0.0,55,0.00,CLR,OVC,0.00,WeatherDisplay:10.37,2013-01-08 15:49:00,
2013-01-08 10:54:00,28.6,8.4,28.47,South,189,0.0,0.0,42,0.00,CLR,OVC,0.00,WeatherDisplay:10.37,2013-01-08 15:54:00,
2013-01-08 10:59:00,29.3,9.0,28.47,SSW,204,3.1,3.5,42,0.00,CLR,OVC,0.00,WeatherDisplay:10.37,2013-01-08 15:59:00,
2013-01-08 11:04:00,29.8,9.0,28.47,SSW,195,3.6,4.6,41,0.00,CLR,OVC,0.00,WeatherDisplay:10.37,2013-01-08 16:04:00,
2013-01-08 11:09:00,30.2,8.7,28.47,SW,224,0.0,3.5,40,0.00,CLR,OVC,0.00,WeatherDisplay:10.37,2013-01-08 16:09:00,
2013-01-08 11:14:00,31.1,10.1,28.47,SSW,198,0.0,2.3,41,0.00,CLR,OVC,0.00,WeatherDisplay:10.37,2013-01-08 16:14:00,
2013-01-08 11:19:00,30.9,5.8,28.47,SSW,197,0.0,2.3,34,0.00,CLR,OVC,0.00,WeatherDisplay:10.37,2013-01-08 16:19:00,
2013-01-08 11:24:00,30.7,5.6,28.47,SSE,162,2.2,2.3,34,0.00,CLR,OVC,0.00,WeatherDisplay:10.37,2013-01-08 16:24:00,
2013-01-08 11:29:00,31.1,6.0,28.47,South,176,2.2,3.5,34,0.00,CLR,OVC,0.00,WeatherDisplay:10.37,2013-01-08 16:29:00,
2013-01-08 11:34:00,31.6,6.4,28.47,South,185,2.2,3.5,34,0.00,CLR,OVC,0.00,WeatherDisplay:10.37,2013-01-08 16:34:00,
2013-01-08 11:39:00,32.2,6.3,28.47,South,180,2.7,4.6,33,0.00,CLR,OVC,0.00,WeatherDisplay:10.37,2013-01-08 16:39:00,
2013-01-08 11:44:00,32.9,6.2,28.47,SSE,167,0.0,3.5,32,0.00,CLR,OVC,0.00,WeatherDisplay:10.37,2013-01-08 16:44:00,
2013-01-08 11:49:00,33.6,6.1,28.47,South,177,2.2,3.5,31,0.00,CLR,OVC,0.00,WeatherDisplay:10.37,2013-01-08 16:49:00,
2013-01-08 11:54:00,33.3,5.8,28.47,SSE,152,0.0,3.6,31,0.00,CLR,OVC,0.00,WeatherDisplay:10.37,2013-01-08 16:54:00,
2013-01-08 11:59:00,33.8,6.3,28.47,South,170,2.7,3.5,31,0.00,CLR,OVC,0.00,WeatherDisplay:10.37,2013-01-08 16:59:00,
2013-01-08 12:04:00,34.5,6.9,28.47,SSW,195,4.5,4.6,31,0.00,CLR,OVC,0.00,WeatherDisplay:10.37,2013-01-08 17:04:00,
2013-01-08 12:09:00,36.1,7.6,28.47,SSW,202,0.0,0.0,30,0.00,CLR,OVC,0.00,WeatherDisplay:10.37,2013-01-08 17:09:00,
2013-01-08 12:14:00,36.7,7.4,28.47,SSE,163,0.0,3.5,29,0.00,CLR,OVC,0.00,WeatherDisplay:10.37,2013-01-08 17:14:00,
2013-01-08 12:19:00,37.4,8.0,28.47,SSE,160,0.0,0.0,29,0.00,CLR,OVC,0.00,WeatherDisplay:10.37,2013-01-08 17:19:00,
2013-01-08 12:24:00,37.9,8.5,28.47,South,184,2.7,5.8,29,0.00,CLR,OVC,0.00,WeatherDisplay:10.37,2013-01-08 17:24:00,
2013-01-08 12:29:00,38.5,8.1,28.47,South,190,4.0,5.8,28,0.00,CLR,OVC,0.00,WeatherDisplay:10.37,2013-01-08 17:29:00,
2013-01-08 12:34:00,39.0,8.6,28.47,South,186,2.7,3.5,28,0.00,CLR,OVC,0.00,WeatherDisplay:10.37,2013-01-08 17:34:00,
2013-01-08 12:39:00,38.5,6.5,28.44,SSE,160,3.1,5.8,26,0.00,CLR,OVC,0.00,WeatherDisplay:10.37,2013-01-08 17:39:00,
2013-01-08 12:44:00,39.4,7.3,28.44,SE,137,4.0,5.8,26,0.00,CLR,OVC,0.00,WeatherDisplay:10.37,2013-01-08 17:44:00,
2013-01-08 12:49:00,37.8,4.1,28.44,SE,142,2.7,3.5,24,0.00,CLR,OVC,0.00,WeatherDisplay:10.37,2013-01-08 17:49:00,
2013-01-08 12:54:00,38.7,4.0,28.44,SSE,160,2.7,5.8,23,0.00,CLR,OVC,0.00,WeatherDisplay:10.37,2013-01-08 17:54:00,
2013-01-08 12:59:00,39.7,4.9,28.44,South,177,3.6,3.6,23,0.00,CLR,OVC,0.00,WeatherDisplay:10.37,2013-01-08 17:59:00,
2013-01-08 13:04:00,39.9,5.0,28.44,SSW,213,5.4,8.1,23,0.00,CLR,OVC,0.00,WeatherDisplay:10.37,2013-01-08 18:04:00,
2013-01-08 13:09:00,37.8,4.1,28.44,SSE,168,4.0,5.8,24,0.00,CLR,OVC,0.00,WeatherDisplay:10.37,2013-01-08 18:09:00,
2013-01-08 13:14:00,38.3,3.7,28.44,South,175,5.4,5.8,23,0.00,CLR,OVC,0.00,WeatherDisplay:10.37,2013-01-08 18:14:00,
2013-01-08 13:19:00,38.7,4.0,28.44,SE,141,4.9,5.8,23,0.00,CLR,OVC,0.00,WeatherDisplay:10.37,2013-01-08 18:19:00,
2013-01-08 13:24:00,37.8,4.1,28.44,South,171,8.3,10.4,24,0.00,CLR,OVC,0.00,WeatherDisplay:10.37,2013-01-08 18:24:00,
2013-01-08 13:29:00,37.2,3.7,28.44,South,172,4.9,10.4,24,0.00,CLR,OVC,0.00,WeatherDisplay:10.37,2013-01-08 18:29:00,
2013-01-08 13:34:00,37.0,3.5,28.44,SSE,162,4.0,8.1,24,0.00,CLR,OVC,0.00,WeatherDisplay:10.37,2013-01-08 18:34:00,
2013-01-08 13:39:00,38.7,4.0,28.44,SSW,198,5.8,8.1,23,0.00,CLR,OVC,0.00,WeatherDisplay:10.37,2013-01-08 18:39:00,
2013-01-08 13:44:00,38.3,3.7,28.44,South,186,2.2,5.8,23,0.00,CLR,OVC,0.00,WeatherDisplay:10.37,2013-01-08 18:44:00,
2013-01-08 13:49:00,39.4,4.6,28.44,SSW,200,4.9,5.8,23,0.00,CLR,OVC,0.00,WeatherDisplay:10.37,2013-01-08 18:49:00,
2013-01-08 13:54:00,39.0,4.3,28.44,SSE,168,3.1,3.5,23,0.00,CLR,OVC,0.00,WeatherDisplay:10.37,2013-01-08 18:54:00,
2013-01-08 13:59:00,37.0,3.5,28.44,SE,137,4.9,6.9,24,0.00,CLR,OVC,0.00,WeatherDisplay:10.37,2013-01-08 18:59:00,
2013-01-08 14:04:00,37.8,4.1,28.44,SSE,154,3.6,3.6,24,0.00,CLR,OVC,0.00,WeatherDisplay:10.37,2013-01-08 19:04:00,
2013-01-08 14:09:00,37.8,4.1,28.44,South,172,7.2,11.5,24,0.00,CLR,OVC,0.00,WeatherDisplay:10.37,2013-01-08 19:09:00,
2013-01-08 14:14:00,37.8,4.1,28.44,SSW,199,5.4,5.8,24,0.00,CLR,OVC,0.00,WeatherDisplay:10.37,2013-01-08 19:14:00,
2013-01-08 14:19:00,36.1,2.8,28.44,ESE,123,4.0,5.8,24,0.00,CLR,OVC,0.00,WeatherDisplay:10.37,2013-01-08 19:19:00,
2013-01-08 14:24:00,36.1,2.8,28.44,SSE,150,4.5,6.9,24,0.00,CLR,OVC,0.00,WeatherDisplay:10.37,2013-01-08 19:24:00,
2013-01-08 14:29:00,36.1,2.8,28.41,SSE,156,0.0,3.5,24,0.00,CLR,OVC,0.00,WeatherDisplay:10.37,2013-01-08 19:29:00,
2013-01-08 14:34:00,35.6,2.3,28.41,SSE,163,3.6,4.6,24,0.00,CLR,OVC,0.00,WeatherDisplay:10.37,2013-01-08 19:34:00,
2013-01-08 14:39:00,35.4,2.1,28.41,SE,141,4.0,5.8,24,0.00,CLR,OVC,0.00,WeatherDisplay:10.37,2013-01-08 19:39:00,
2013-01-08 14:44:00,35.4,2.1,28.41,SSW,202,3.1,5.8,24,0.00,CLR,OVC,0.00,WeatherDisplay:10.37,2013-01-08 19:44:00,
2013-01-08 14:49:00,35.2,4.5,28.41,SSE,157,4.5,6.3,27,0.00,CLR,OVC,0.00,WeatherDisplay:10.37,2013-01-08 19:49:00,
2013-01-08 14:54:00,35.1,4.4,28.44,SSE,149,5.4,9.2,27,0.00,CLR,OVC,0.00,WeatherDisplay:10.37,2013-01-08 19:54:00,
2013-01-08 14:59:00,35.1,4.4,28.44,SSE,168,4.9,9.2,27,0.00,CLR,OVC,0.00,WeatherDisplay:10.37,2013-01-08 19:59:00,
2013-01-08 15:04:00,35.1,4.4,28.44,SSE,154,4.0,4.0,27,0.00,CLR,OVC,0.00,WeatherDisplay:10.37,2013-01-08 20:04:00,
2013-01-08 15:09:00,35.1,4.4,28.44,SSE,149,4.5,8.1,27,0.00,CLR,OVC,0.00,WeatherDisplay:10.37,2013-01-08 20:09:00,
2013-01-08 15:14:00,35.1,4.4,28.44,SE,144,7.2,9.2,27,0.00,CLR,OVC,0.00,WeatherDisplay:10.37,2013-01-08 20:14:00,
2013-01-08 15:19:00,35.1,4.4,28.44,SSE,148,5.8,5.8,27,0.00,CLR,OVC,0.00,WeatherDisplay:10.37,2013-01-08 20:19:00,
2013-01-08 15:24:00,35.1,4.4,28.44,SSE,164,6.7,8.1,27,0.00,CLR,OVC,0.00,WeatherDisplay:10.37,2013-01-08 20:24:00,
2013-01-08 15:29:00,35.1,4.4,28.44,South,178,4.0,5.8,27,0.00,CLR,OVC,0.00,WeatherDisplay:10.37,2013-01-08 20:29:00,
2013-01-08 15:34:00,34.0,5.7,28.44,South,176,4.0,5.8,30,0.00,CLR,OVC,0.00,WeatherDisplay:10.37,2013-01-08 20:34:00,
2013-01-08 15:39:00,34.0,5.7,28.41,South,169,3.6,4.6,30,0.00,CLR,OVC,0.00,WeatherDisplay:10.37,2013-01-08 20:39:00,
2013-01-08 15:44:00,34.0,5.7,28.41,SSE,157,3.1,5.8,30,0.00,CLR,OVC,0.00,WeatherDisplay:10.37,2013-01-08 20:44:00,
2013-01-08 15:49:00,34.0,5.7,28.41,SSE,159,3.1,3.5,30,0.00,CLR,OVC,0.00,WeatherDisplay:10.37,2013-01-08 20:49:00,
2013-01-08 15:54:00,34.0,5.7,28.41,SE,125,3.6,3.6,30,0.00,CLR,OVC,0.00,WeatherDisplay:10.37,2013-01-08 20:54:00,
2013-01-08 15:59:00,34.5,6.2,28.41,SE,144,4.0,5.8,30,0.00,CLR,OVC,0.00,WeatherDisplay:10.37,2013-01-08 20:59:00,
2013-01-08 16:04:00,34.3,6.1,28.41,South,182,5.4,5.8,30,0.00,CLR,OVC,0.00,WeatherDisplay:10.37,2013-01-08 21:04:00,
2013-01-08 16:09:00,34.3,6.1,28.41,South,181,5.8,5.8,30,0.00,CLR,OVC,0.00,WeatherDisplay:10.37,2013-01-08 21:09:00,
2013-01-08 16:14:00,34.5,6.2,28.41,SE,132,4.0,5.8,30,0.00,CLR,OVC,0.00,WeatherDisplay:10.37,2013-01-08 21:14:00,
2013-01-08 16:19:00,34.2,5.9,28.41,SSE,162,5.4,5.8,30,0.00,CLR,OVC,0.00,WeatherDisplay:10.37,2013-01-08 21:19:00,
2013-01-08 16:24:00,34.2,5.9,28.41,SSE,160,4.9,5.8,30,0.00,CLR,OVC,0.00,WeatherDisplay:10.37,2013-01-08 21:24:00,
2013-01-08 16:29:00,34.0,5.7,28.41,SSE,150,4.5,5.8,30,0.00,CLR,OVC,0.00,WeatherDisplay:10.37,2013-01-08 21:29:00,
2013-01-08 16:34:00,33.8,5.6,28.41,SSE,165,4.5,8.1,30,0.00,CLR,OVC,0.00,WeatherDisplay:10.37,2013-01-08 21:34:00,
2013-01-08 16:39:00,33.4,5.3,28.41,SSE,155,0.0,3.5,30,0.00,CLR,OVC,0.00,WeatherDisplay:10.37,2013-01-08 21:39:00,
2013-01-08 16:44:00,33.4,5.3,28.41,SSE,156,2.7,3.5,30,0.00,CLR,OVC,0.00,WeatherDisplay:10.37,2013-01-08 21:44:00,
2013-01-08 16:49:00,33.1,5.0,28.41,South,169,3.1,5.8,30,0.00,CLR,OVC,0.00,WeatherDisplay:10.37,2013-01-08 21:49:00,
2013-01-08 16:54:00,32.9,5.5,28.41,SSW,192,0.0,3.5,31,0.00,CLR,OVC,0.00,WeatherDisplay:10.37,2013-01-08 21:54:00,
2013-01-08 16:59:00,32.9,5.5,28.38,SSE,163,0.0,3.5,31,0.00,CLR,OVC,0.00,WeatherDisplay:10.37,2013-01-08 21:59:00,
2013-01-08 17:04:00,32.5,5.2,28.38,ESE,103,0.0,0.0,31,0.00,CLR,OVC,0.00,WeatherDisplay:10.37,2013-01-08 22:04:00,
2013-01-08 17:09:00,32.0,4.7,28.38,ESE,103,0.0,0.0,31,0.00,CLR,OVC,0.00,WeatherDisplay:10.37,2013-01-08 22:09:00,
2013-01-08 17:14:00,31.3,4.8,28.38,SSE,168,0.0,3.5,32,0.00,CLR,OVC,0.00,WeatherDisplay:10.37,2013-01-08 22:14:00,
2013-01-08 17:19:00,31.3,5.5,28.38,SSE,165,2.2,3.5,33,0.00,CLR,OVC,0.00,WeatherDisplay:10.37,2013-01-08 22:19:00,
2013-01-08 17:24:00,31.3,5.5,28.38,SSE,164,3.1,4.0,33,0.00,CLR,OVC,0.00,WeatherDisplay:10.37,2013-01-08 22:24:00,
2013-01-08 17:29:00,31.1,6.0,28.38,South,169,2.7,3.5,34,0.00,CLR,OVC,0.00,WeatherDisplay:10.37,2013-01-08 22:29:00,
2013-01-08 17:34:00,30.9,5.8,28.38,SSE,148,3.6,5.8,34,0.00,CLR,OVC,0.00,WeatherDisplay:10.37,2013-01-08 22:34:00,
2013-01-08 17:39:00,30.4,5.9,28.38,SSE,157,2.2,3.5,35,0.00,CLR,OVC,0.00,WeatherDisplay:10.37,2013-01-08 22:39:00,
2013-01-08 17:44:00,30.0,6.2,28.38,SE,140,3.6,8.1,36,0.00,CLR,OVC,0.00,WeatherDisplay:10.37,2013-01-08 22:44:00,
2013-01-08 17:49:00,30.0,6.9,28.38,SSE,165,5.4,8.1,37,0.00,CLR,OVC,0.00,WeatherDisplay:10.37,2013-01-08 22:49:00,
2013-01-08 17:54:00,30.2,7.0,28.38,SSE,164,3.1,6.3,37,0.00,CLR,OVC,0.00,WeatherDisplay:10.37,2013-01-08 22:54:00,
2013-01-08 17:59:00,30.4,7.8,28.35,SE,142,5.8,9.2,38,0.00,CLR,OVC,0.00,WeatherDisplay:10.37,2013-01-08 22:59:00,
2013-01-08 18:04:00,30.6,7.9,28.35,ESE,123,4.0,5.8,38,0.00,CLR,OVC,0.00,WeatherDisplay:10.37,2013-01-08 23:04:00,
2013-01-08 18:09:00,30.6,8.5,28.35,South,187,4.0,5.8,39,0.00,CLR,OVC,0.00,WeatherDisplay:10.37,2013-01-08 23:09:00,
2013-01-08 18:14:00,30.4,8.9,28.35,SSE,151,4.5,5.8,40,0.00,CLR,OVC,0.00,WeatherDisplay:10.37,2013-01-08 23:14:00,
2013-01-08 18:19:00,30.0,8.6,28.35,ESE,120,6.3,8.1,40,0.00,CLR,OVC,0.00,WeatherDisplay:10.37,2013-01-08 23:19:00,
2013-01-08 18:24:00,29.8,9.0,28.35,SE,131,4.5,5.8,41,0.00,CLR,OVC,0.00,WeatherDisplay:10.37,2013-01-08 23:24:00,
2013-01-08 18:29:00,30.0,9.1,28.35,SE,129,4.5,5.8,41,0.00,CLR,OVC,0.00,WeatherDisplay:10.37,2013-01-08 23:29:00,
2013-01-08 18:34:00,29.8,9.0,28.35,South,169,3.1,5.8,41,0.00,CLR,OVC,0.00,WeatherDisplay:10.37,2013-01-08 23:34:00,
2013-01-08 18:39:00,29.7,9.3,28.35,SSE,158,7.2,9.2,42,0.00,CLR,OVC,0.00,WeatherDisplay:10.37,2013-01-08 23:39:00,
2013-01-08 18:44:00,29.5,9.2,28.35,SSE,162,8.0,12.7,42,0.00,CLR,OVC,0.00,WeatherDisplay:10.37,2013-01-08 23:44:00,
2013-01-08 18:49:00,29.3,9.5,28.35,SSE,164,6.7,8.1,43,0.00,CLR,OVC,0.00,WeatherDisplay:10.37,2013-01-08 23:49:00,
2013-01-08 18:54:00,29.3,9.5,28.35,SE,140,4.9,5.8,43,0.00,CLR,OVC,0.00,WeatherDisplay:10.37,2013-01-08 23:54:00,
2013-01-08 18:59:00,29.3,9.5,28.35,SSE,163,8.7,11.5,43,0.00,CLR,OVC,0.00,WeatherDisplay:10.37,2013-01-08 23:59:00,
2013-01-08 19:04:00,28.9,10.2,28.35,SSE,154,5.8,8.1,45,0.00,CLR,OVC,0.00,WeatherDisplay:10.37,2013-01-09 00:04:00,
2013-01-08 19:09:00,28.9,11.2,28.35,SSE,153,4.0,5.8,47,0.00,CLR,OVC,0.00,WeatherDisplay:10.37,2013-01-09 00:09:00,
2013-01-08 19:14:00,28.9,11.2,28.32,South,182,5.8,8.1,47,0.00,CLR,OVC,0.00,WeatherDisplay:10.37,2013-01-09 00:14:00,
2013-01-08 19:19:00,28.9,11.2,28.32,SE,126,7.2,8.1,47,0.00,CLR,OVC,0.00,WeatherDisplay:10.37,2013-01-09 00:19:00,
2013-01-08 19:24:00,28.8,12.9,28.32,SSE,165,4.9,9.2,51,0.00,CLR,OVC,0.00,WeatherDisplay:10.37,2013-01-09 00:24:00,
2013-01-08 19:29:00,28.8,12.9,28.32,SSE,166,4.0,4.6,51,0.00,CLR,OVC,0.00,WeatherDisplay:10.37,2013-01-09 00:29:00,
2013-01-08 19:34:00,28.6,13.2,28.32,SSE,166,2.7,3.5,52,0.00,CLR,OVC,0.00,WeatherDisplay:10.37,2013-01-09 00:34:00,
2013-01-08 19:39:00,28.6,14.4,28.32,SSE,151,5.4,5.8,55,0.00,CLR,OVC,0.00,WeatherDisplay:10.37,2013-01-09 00:39:00,
2013-01-08 19:44:00,28.4,14.3,28.32,SSE,158,7.6,10.4,55,0.00,CLR,OVC,0.00,WeatherDisplay:10.37,2013-01-09 00:44:00,
2013-01-08 19:49:00,28.8,15.8,28.32,SSE,164,6.7,13.2,58,0.00,CLR,OVC,0.00,WeatherDisplay:10.37,2013-01-09 00:49:00,
2013-01-08 19:54:00,29.1,16.6,28.32,SSE,164,8.3,9.2,59,0.00,CLR,OVC,0.00,WeatherDisplay:10.37,2013-01-09 00:54:00,
2013-01-08 19:59:00,29.3,17.1,28.32,South,170,4.9,8.1,60,0.00,CLR,OVC,0.00,WeatherDisplay:10.37,2013-01-09 00:59:00,
2013-01-08 20:04:00,29.7,17.8,28.32,South,182,10.5,13.8,61,0.00,CLR,OVC,0.00,WeatherDisplay:10.37,2013-01-09 01:04:00,
2013-01-08 20:09:00,29.7,17.8,28.32,South,191,5.8,8.3,61,0.00,CLR,OVC,0.00,WeatherDisplay:10.37,2013-01-09 01:09:00,
2013-01-08 20:14:00,29.8,18.4,28.29,SE,140,8.3,10.4,62,0.00,CLR,OVC,0.00,WeatherDisplay:10.37,2013-01-09 01:14:00,
2013-01-08 20:19:00,30.2,19.5,28.29,SSE,153,8.3,12.7,64,0.00,CLR,OVC,0.00,WeatherDisplay:10.37,2013-01-09 01:19:00,
2013-01-08 20:24:00,30.4,20.0,28.29,SE,132,8.3,10.4,65,0.00,CLR,OVC,0.00,WeatherDisplay:10.37,2013-01-09 01:24:00,
2013-01-08 20:29:00,30.6,20.5,28.29,SE,146,6.3,8.1,66,0.00,CLR,OVC,0.00,WeatherDisplay:10.37,2013-01-09 01:29:00,
2013-01-08 20:34:00,30.9,20.9,28.29,South,178,7.6,10.4,66,0.00,CLR,OVC,0.00,WeatherDisplay:10.37,2013-01-09 01:34:00,
2013-01-08 20:39:00,31.1,21.4,28.29,SSE,155,7.6,10.4,67,0.00,CLR,OVC,0.00,WeatherDisplay:10.37,2013-01-09 01:39:00,
2013-01-08 20:44:00,31.1,21.4,28.26,SSE,160,8.3,11.5,67,0.00,CLR,OVC,0.00,WeatherDisplay:10.37,2013-01-09 01:44:00,
2013-01-08 20:49:00,31.3,21.6,28.26,ESE,113,4.5,9.2,67,0.00,CLR,OVC,0.00,WeatherDisplay:10.37,2013-01-09 01:49:00,
2013-01-08 20:54:00,31.5,21.8,28.26,South,179,4.9,7.6,67,0.00,CLR,OVC,0.00,WeatherDisplay:10.37,2013-01-09 01:54:00,
2013-01-08 20:59:00,31.5,21.4,28.26,SSE,167,8.0,12.7,66,0.00,CLR,OVC,0.00,WeatherDisplay:10.37,2013-01-09 01:59:00,
2013-01-08 21:04:00,31.6,21.6,28.26,South,174,7.2,9.2,66,0.00,CLR,OVC,0.00,WeatherDisplay:10.37,2013-01-09 02:04:00,
2013-01-08 21:09:00,31.6,21.2,28.26,SSE,163,8.7,11.5,65,0.00,CLR,OVC,0.00,WeatherDisplay:10.37,2013-01-09 02:09:00,
2013-01-08 21:14:00,31.6,21.2,28.26,SSE,157,10.9,12.7,65,0.00,CLR,OVC,0.00,WeatherDisplay:10.37,2013-01-09 02:14:00,
2013-01-08 21:19:00,31.6,21.2,28.26,SE,145,10.1,15.0,65,0.00,CLR,OVC,0.00,WeatherDisplay:10.37,2013-01-09 02:19:00,
2013-01-08 21:24:00,31.6,21.2,28.26,SSE,161,6.3,8.1,65,0.00,CLR,OVC,0.00,WeatherDisplay:10.37,2013-01-09 02:24:00,
2013-01-08 21:29:00,31.6,19.7,28.23,South,182,7.6,10.4,61,0.00,CLR,OVC,0.00,WeatherDisplay:10.37,2013-01-09 02:29:00,
2013-01-08 21:34:00,31.8,19.5,28.23,South,172,13.2,17.3,60,0.00,CLR,OVC,0.00,WeatherDisplay:10.37,2013-01-09 02:34:00,
2013-01-08 21:39:00,31.8,19.5,28.23,SSW,200,9.6,12.7,60,0.00,CLR,OVC,0.00,WeatherDisplay:10.37,2013-01-09 02:39:00,
2013-01-08 21:44:00,31.8,19.5,28.23,South,171,11.4,15.0,60,0.00,CLR,OVC,0.00,WeatherDisplay:10.37,2013-01-09 02:44:00,
2013-01-08 21:49:00,32.0,19.3,28.23,South,191,8.3,11.5,59,0.00,CLR,OVC,0.00,WeatherDisplay:10.37,2013-01-09 02:49:00,
2013-01-08 21:54:00,32.0,19.3,28.23,South,185,7.6,12.7,59,0.00,CLR,OVC,0.00,WeatherDisplay:10.37,2013-01-09 02:54:00,
2013-01-08 21:59:00,32.2,19.4,28.23,South,170,6.3,9.2,59,0.00,CLR,OVC,0.00,WeatherDisplay:10.37,2013-01-09 02:59:00,
2013-01-08 22:04:00,32.2,19.4,28.23,SSE,153,9.6,11.5,59,0.00,CLR,OVC,0.00,WeatherDisplay:10.37,2013-01-09 03:04:00,
2013-01-08 22:09:00,32.2,19.4,28.23,South,175,10.5,13.8,59,0.00,CLR,OVC,0.00,WeatherDisplay:10.37,2013-01-09 03:09:00,
2013-01-08 22:14:00,32.2,19.4,28.23,South,170,8.7,15.0,59,0.00,CLR,OVC,0.00,WeatherDisplay:10.37,2013-01-09 03:14:00,
2013-01-08 22:19:00,32.2,19.4,28.23,SSE,161,8.7,10.4,59,0.00,CLR,OVC,0.00,WeatherDisplay:10.37,2013-01-09 03:19:00,
2013-01-08 22:24:00,32.2,19.4,28.23,SSE,165,8.7,9.2,59,0.00,CLR,OVC,0.00,WeatherDisplay:10.37,2013-01-09 03:24:00,
2013-01-08 22:29:00,32.2,19.4,28.23,South,171,8.3,11.5,59,0.00,CLR,OVC,0.00,WeatherDisplay:10.37,2013-01-09 03:29:00,
2013-01-08 22:34:00,32.4,18.4,28.23,South,189,8.0,11.5,56,0.00,CLR,OVC,0.00,WeatherDisplay:10.37,2013-01-09 03:34:00,
2013-01-08 22:39:00,32.4,18.0,28.23,South,188,6.7,8.1,55,0.00,CLR,OVC,0.00,WeatherDisplay:10.37,2013-01-09 03:39:00,
2013-01-08 22:44:00,32.4,18.0,28.20,South,172,9.6,12.7,55,0.00,CLR,OVC,0.00,WeatherDisplay:10.37,2013-01-09 03:44:00,
2013-01-08 22:49:00,32.4,18.0,28.20,South,190,9.6,11.5,55,0.00,CLR,OVC,0.00,WeatherDisplay:10.37,2013-01-09 03:49:00,
2013-01-08 22:54:00,32.4,18.0,28.20,SSE,167,8.7,17.3,55,0.00,CLR,OVC,0.00,WeatherDisplay:10.37,2013-01-09 03:54:00,
2013-01-08 22:59:00,32.5,17.3,28.20,South,173,8.7,15.0,53,0.00,CLR,OVC,0.00,WeatherDisplay:10.37,2013-01-09 03:59:00,
2013-01-08 23:04:00,32.5,17.3,28.20,SSW,209,4.9,5.8,53,0.00,CLR,OVC,0.00,WeatherDisplay:10.37,2013-01-09 04:04:00,
2013-01-08 23:09:00,32.5,16.8,28.20,SSW,204,7.6,11.5,52,0.00,CLR,OVC,0.00,WeatherDisplay:10.37,2013-01-09 04:09:00,
2013-01-08 23:14:00,32.5,16.4,28.20,SW,217,8.0,10.4,51,0.00,CLR,OVC,0.00,WeatherDisplay:10.37,2013-01-09 04:14:00,
2013-01-08 23:19:00,32.5,16.4,28.20,SSW,208,10.1,12.7,51,0.00,CLR,OVC,0.00,WeatherDisplay:10.37,2013-01-09 04:19:00,
2013-01-08 23:24:00,32.5,16.4,28.20,South,177,7.6,11.5,51,0.00,CLR,OVC,0.00,WeatherDisplay:10.37,2013-01-09 04:24:00,
2013-01-08 23:29:00,32.5,16.4,28.20,South,181,8.7,12.7,51,0.00,CLR,OVC,0.00,WeatherDisplay:10.37,2013-01-09 04:29:00,
2013-01-08 23:34:00,32.5,16.4,28.20,SSW,211,5.4,8.1,51,0.00,CLR,OVC,0.00,WeatherDisplay:10.37,2013-01-09 04:34:00,
2013-01-08 23:39:00,32.5,16.4,28.20,South,176,5.8,9.2,51,0.00,CLR,OVC,0.00,WeatherDisplay:10.37,2013-01-09 04:39:00,
2013-01-08 23:44:00,32.2,15.6,28.20,South,170,4.9,12.7,50,0.00,CLR,OVC,0.00,WeatherDisplay:10.37,2013-01-09 04:44:00,
2013-01-08 23:49:00,32.2,15.6,28.20,South,184,9.2,12.7,50,0.00,CLR,OVC,0.00,WeatherDisplay:10.37,2013-01-09 04:49:00,
2013-01-08 23:54:00,32.2,15.6,28.20,SSW,202,6.3,9.2,50,0.00,CLR,OVC,0.00,WeatherDisplay:10.37,2013-01-09 04:54:00,
2013-01-08 23:59:00,32.2,15.6,28.20,South,190,8.3,11.5,50,0.00,CLR,OVC,0.00,WeatherDisplay:10.37,2013-01-09 04:59:00,